ハウエル彗星

88P/Howell (2015)

English version
Home page
Updated on March 26, 2016

---------------------------------------------------------------------

・ プロフィール

・ 写真集

・ 軌道要素

Epoch 2015 Apr. 8.0 TT = JDT 2457120.5
T 2015 Apr. 6.23196 TT                                  MPCW
q   1.3585942            (2000.0)            P               Q
n   0.17978925     Peri.  235.91895     +0.38253768     +0.92172980
a   3.1090443      Node    56.69759     -0.82053097     +0.37068728
e   0.5630187      Incl.    4.38263     -0.42472797     +0.11404002
P   5.48
From 1707 observations 2003 Dec. 31-2015 Sept. 25, mean residual 0".8.
     Nongravitational parameters A1 = +0.74, A2 = -0.0274.

・ 星図

・ 光度変化

        m1 =  5.2 + 5 logΔ + 22.0 log r(t - 15)  [  ,15]  (              〜2015年 4月21日)
        m1 =  5.2 + 5 logΔ + 20.0 log r          [15,  ]  (2015年 4月21日〜              )

---------------------------------------------------------------------

軌道要素はM.P.E.C. 2015-S97に掲載されたものです。
星図はステラナビゲータ Ver.8 (アストロアーツ) で作成したものです。
光度グラフはComet for Windowsで作成したものです。

---------------------------------------------------------------------

Copyright(C) Seiichi Yoshida (comet@aerith.net). All rights reserved.